{"data":{"norad_id":59307,"intl_designator":"2024-056M","name":"STARLINK-31282","alt_names":[],"object_type":"PAYLOAD","status":"ACTIVE","operator":null,"country":"US","launch_date":"2024-03-24","launch_site_code":"AFETR","launch_vehicle":null,"mission":null,"orbit_class":"UNKNOWN","rcs_meters":null,"size_class":null,"mass_kg":null,"dimensions":null,"purposes":["comms"],"wikipedia_slug":null,"has_3d_model":false,"image_url":null,"decayed_at":null,"tle_current":{"epoch":"2026-09-21T06:26:27.838464Z","epoch_age_seconds":95886,"freshness":"FRESH","line1":"1 59307U 24056M   26264.26837776  .00000224  00000+0  17656-4 0  9993","line2":"2 59307  43.0017 206.3440 0000918 274.2323  85.8424 15.27575399141067","mean_motion":15.27575399,"eccentricity":9.18e-5,"inclination_deg":43.0017,"raan_deg":206.344,"arg_perigee_deg":274.2323,"mean_anomaly_deg":85.8424,"bstar":1.7656e-5,"rev_number":14106,"period_min":94.267032641575,"perigee_km":482.43301497508,"apogee_km":483.69273127179,"semimajor_km":6861.1998731234,"source":"CELESTRAK","updated_at":"2026-09-22T09:00:48.895277Z"}}}